Regional Weather Roundup
Issued by NWS San Angelo, TX

Home | Current Version | Previous Version | Text Only | Print | Product List | Glossary On
Versions: 1 2 3 4 5 6 7 8 9 10 11 12 13 14 15 16 17 18 19 20 21 22 23 24 25 26 27 28 29 30 31 32 33 34 35 36 37 38 39 40 41 42 43 44 45 46 47 48 49 50
000
ASUS44 KSJT 230110
RWRSJT
WEST CENTRAL TEXAS REGIONAL WEATHER ROUNDUP
NATIONAL WEATHER SERVICE SAN ANGELO TX
800 PM CDT TUE AUG 22 2017

NOTE: "FAIR" INDICATES FEW OR NO CLOUDS BELOW 12,000 FEET WITH NO
SIGNIFICANT WEATHER AND/OR OBSTRUCTIONS TO VISIBILITY.

TXZ049-054-064>066-071>073-076>078-098-099-113-114-127-128-139-140-
154-155-168>170-230200
...LOCATIONS ACROSS WEST CENTRAL TEXAS...

CITY           SKY/WX    TMP DP  RH WIND       PRES   REMARKS
SAN ANGELO     CLEAR     92  56  29 SE6       29.99S
ABILENE        CLOUDY    89  63  41 S8        30.00F
DYESS AFB      MOCLDY    90  66  45 SE8       29.99S
JUNCTION       PTCLDY    92  62  36 SE10      30.00R
SWEETWATER     CLEAR     86  61  42 S6        30.06S
BROWNWOOD      MOCLDY    90  61  37 E5        29.99R
COLEMAN        CLEAR     93  57  29 SE3       30.00S
SONORA         CLEAR     91  59  33 CALM      30.04S
OZONA          FAIR      90  59  35 S6        30.04S
BRADY          NOT AVBL
$$

TEXAS PANHANDLE/OKLAHOMA PANHANDLE

CITY           SKY/WX    TMP DP  RH WIND       PRES   REMARKS
AMARILLO       MOCLDY    71  64  78 S8        30.17F
BORGER         PTCLDY    79  68  69 NE7       30.14F
CANADIAN       CLOUDY    79  71  76 E3        30.09F
DALHART        MOCLDY    73  65  75 NE3       30.24S
DUMAS          CLOUDY    73  65  75 N7        30.20S
GUYMON         NOT AVBL
HEREFORD       CLOUDY    74  68  79 NE5       30.20S
PAMPA          PTCLDY    77  68  75 E8        30.16S
PERRYTON       CLEAR     81  67  62 E8        30.13S
$$

SOUTHERN PANHANDLE/SOUTH PLAINS/ROLLING PLAINS

CITY           SKY/WX    TMP DP  RH WIND       PRES   REMARKS
LUBBOCK        TSTM      67  64  90 NE15G23   30.17F
SNYDER         CLOUDY    89  62  39 N20G25    30.08R
CHILDRESS      MOCLDY    71  69  93 SW3       30.07F
SEMINOLE       MOCLDY    86  60  41 S5        30.11R
$$

PERMIAN BASIN

CITY           SKY/WX    TMP DP  RH WIND       PRES   REMARKS
MIDLAND        CLOUDY    91  59  33 SE10      30.04R
ODESSA         PTCLDY    89  62  40 SE9       30.06R
WINK           PTCLDY    88  64  44 E9        30.02R
$$

FAR WEST/SOUTHWEST MOUNTAINS/TRANS PECOS

CITY           SKY/WX    TMP DP  RH WIND       PRES   REMARKS
ALPINE         CLOUDY    77  62  60 W5        30.22S
DRYDEN           N/A     91  60  35 SE10      29.98F
EL PASO        MOCLDY    89  58  34 E8        30.09
FORT STOCKTON  CLEAR     88  62  41 S14       30.03F
GUADALUPE PASS CLOUDY    76  63  64 E10       30.25S
MARFA          CLOUDY    78  59  51 CALM      30.22R
PECOS          CLEAR     93  58  30 CALM      30.00R
$$

DALLAS/FORT WORTH METROPLEX

CITY           SKY/WX    TMP DP  RH WIND       PRES   REMARKS
DFW AIRPORT    MOCLDY    91  66  43 SE9       29.94R
FTW MEACHAM    CLEAR     93  68  43 SE8       29.95R
DAL-EXECUTIVE  CLEAR     89  70  53 SE6       29.96R
GRAND PRAIRIE  CLEAR     91  64  40 SE7       29.97R
ADDISON        NOT AVBL
MESQUITE       CLEAR     88  70  55 SE6       29.97R
LANCASTER      CLEAR     91  67  43 SE7       29.97R
$$

NORTH CENTRAL TEXAS

CITY           SKY/WX    TMP DP  RH WIND       PRES   REMARKS
SHRMAN/DENISON MOCLDY    87  71  59 SE13      29.99R
GAINESVILLE    CLOUDY    86  72  62 CALM      29.99S
BRIDGEPORT     CLEAR     84  75  72 CALM      29.98S
DENTON         CLOUDY    91  70  49 SE7       29.96R
WAXAHACHIE     PTCLDY    89  67  47 SE3       29.98R
GRANBURY       CLEAR     93  64  38 SE7       29.97S
$$

WESTERN NORTH TEXAS

CITY           SKY/WX    TMP DP  RH WIND       PRES   REMARKS
WICHITA FALLS  CLOUDY    86  70  58 CALM      29.97F
VERNON         CLOUDY    74  69  85 W12       30.04S
BRECKENRIDGE   CLOUDY    92  63  37 SE7       29.98S
COMANCHE       CLEAR     88  63  42 E6        30.00S
$$

CENTRAL AND SOUTH CENTRAL TEXAS

CITY           SKY/WX    TMP DP  RH WIND       PRES   REMARKS
AUSTIN/BERGSTM PTCLDY    94  65  38 SE7       29.95R
WACO           PTCLDY    91  68  46 S3        29.95R
HILLSBORO      CLEAR     93  67  41 SE5       29.97R
TEMPLE         CLEAR     92  65  40 S8        29.97R
KILLEEN-GRAY   CLEAR     89  63  41 SE8       29.97R
FORT HOOD      CLEAR    N/A N/A N/A S8        29.94R
GEORGETOWN     CLEAR     92  66  42 SE3       29.98S
LAGO VISTA     FAIR      89  62  40 CALM      30.00R
SAN MARCOS     CLEAR     90  65  43 SE6       29.96R
NEW BRAUNFELS  CLEAR     92  64  39 SE8       29.94S
RANDOLPH AFB   PTCLDY    87  66  49 SE14G20   29.96S
SAN ANTONIO    PTCLDY    92  64  39 SE8       29.97S
STINSON        PTCLDY    91  70  49 SE9       29.94R
PLEASANTON     NOT AVBL
LA GRANGE      CLEAR     93  68  43 S10       29.94R
GIDDINGS       PTCLDY    90  63  40 SE3       29.96S
$$

EAST TEXAS

CITY           SKY/WX    TMP DP  RH WIND       PRES   REMARKS
PARIS          CLEAR     86  76  71 S3        29.98R
CLARKSVILLE    NOT AVBL
TYLER          CLEAR     86  71  60 SE6       29.98R
LONGVIEW       CLEAR     84  78  82 SE5       29.96S
PALESTINE      CLEAR     90  69  50 E7        29.98R
NACOGDOCHES    CLEAR     86  73  65 E7        29.98S
$$

TEXAS HILL COUNTRY AND EDWARDS PLATEAU

CITY           SKY/WX    TMP DP  RH WIND       PRES   REMARKS
LLANO          CLEAR     90  66  45 SE3       30.01R
HORSESHOE BAY  FAIR      90  61  38 SE3       29.99R
KERRVILLE      CLEAR     87  65  48 S6        30.02R
FREDERICKSBRG  CLEAR     87  59  38 S5        30.02R
ROCKSPRINGS    NOT AVBL
HONDO          CLEAR     92  66  42 E7        29.97R
UVALDE         CLEAR     92  62  36 CALM      29.96S
DEL RIO        CLEAR     96  59  29 SE10      29.92S
$$

SOUTHEAST TEXAS

CITY           SKY/WX    TMP DP  RH WIND       PRES   REMARKS
COLLEGE STN    CLEAR     92  66  42 S10       29.95S
CALDWELL       NOT AVBL
CROCKETT       PTCLDY    88  68  51 SE3       29.99S
BRENHAM        CLEAR     91  67  44 SE5       29.97S
HUNTSVILLE     CLEAR     91  65  41 VRB3      29.97S
CONROE         CLEAR     86  71  60 SE6       29.97S
HOUSTON BUSH   PTCLDY    87  73  62 SE13      29.96F
HOUSTON HOBBY  PTCLDY    88  70  55 S8        29.97S
PERLAND        CLEAR     89  71  55 SE7       29.99S
WHARTON        CLEAR     83  67  58 SE6       29.98S
$$

THE UPPER TEXAS COAST

CITY           SKY/WX    TMP DP  RH WIND       PRES   REMARKS
ORANGE         CLOUDY    84  76  76 SE6       30.00S
PORT ARTHUR    CLOUDY    82  74  76 SE6       29.98S
GALVESTON      CLEAR     85  75  72 SE9       29.98F
ANGLETON       CLEAR     85  75  72 SE7       29.98F
BAY CITY       CLEAR     85  73  69 SE7       29.98S
$$

TEXAS COASTAL BEND, RIO GRANDE PLAINS DEEP SOUTH TEXAS

CITY           SKY/WX    TMP DP  RH WIND       PRES   REMARKS
VICTORIA       CLEAR     87  71  58 SE12      29.97R
BEEVILLE       FAIR      84  74  73 SE6       29.97R
ROCKPORT       CLEAR     85  73  67 SE16      29.96S
PORT ARANSAS   CLEAR     84  76  75 SE9       29.97S
PORT LAVACA    CLEAR     84  72  66 SE12      29.97S
CORPUS CHRISTI PTCLDY    85  74  69 SE13      29.96S
KINGSVILLE NAS PTCLDY    85  75  72 SE13      29.96S
COTULLA        MOCLDY    94  64  37 SE13      29.92S
LAREDO         CLEAR     92  69  47 SE18      29.93R
BROWNSVILLE    CLEAR     84  75  74 E10       29.96S
PORT ISABEL    CLEAR     85  75  72 E12       29.96S
HEBBRONVILLE   CLEAR     89  65  44 SE16      29.98R
MCALLEN        CLEAR     91  70  49 E14       29.95R
WESLACO        CLEAR     87  71  58 SE9       29.95R
FALFURRIAS     CLEAR     87  69  55 CALM      29.96R
EDINBURG       CLEAR     89  69  51 E15       29.96R
$$




USA.gov is the U.S. government's official web portal to all federal, state and local government web resources and services.